Location: *
(44.4833°S, 173.2333°W)
Time: 05:20:53
(UTC+00:00)

Daily predictions for brighter satellites

Satellite Brightness Start Highest point End
(mag) Time Altitude Azimuth Time Altitude Azimuth Time Altitude Azimuth
CZ-4C R/B 4.4 04:27:22 10° WSW 04:32:32 20° SSW 04:37:10 10° SSE
Cosmos 1500 Rocket 3.6 04:31:13 10° N 04:35:36 71° E 04:40:01 10° SSE
STARLINK-1303 4.0 04:32:31 10° W 04:35:49 42° SSW 04:39:09 10° SE
STARLINK-1287 3.8 04:31:42 10° NW 04:35:51 64° NE 04:40:02 10° ESE
FALCON 9 DEB 4.3 04:32:45 10° SW 04:35:54 28° SSE 04:39:00 10° E
Cosmos 1782 2.8 04:32:37 10° S 04:36:41 70° E 04:40:41 10° NNE
STARLINK-75 4.3 04:34:44 10° W 04:37:42 31° SSW 04:40:41 10° SE
STARLINK-1312 4.0 04:34:31 10° W 04:37:49 40° SSW 04:41:08 10° SE
Cosmos 1862 4.2 04:34:37 10° NNE 04:38:09 30° E 04:41:45 10° SSE
Cosmos 2322 Rocket 3.7 04:35:05 10° WNW 04:40:15 34° SW 04:45:30 10° S
SL-4 R/B 1.7 04:37:38 10° WSW 04:41:20 81° SSE 04:45:16 10° ENE
STARLINK-58 3.8 04:41:15 10° W 04:44:23 43° SSW 04:47:32 10° SE
STARLINK-1302 3.7 04:41:37 10° NW 04:45:48 76° NE 04:49:59 10° ESE
Cosmos 1805 Rocket 4.0 04:41:48 10° NNE 04:45:58 43° E 04:50:12 10° SSE
Envisat 4.5 04:43:08 10° SE 04:46:23 17° E 04:49:37 10° NE
STARLINK-22 4.2 04:44:18 10° W 04:47:18 32° SSW 04:50:20 10° SE
STARLINK-1273 3.7 04:46:35 10° NW 04:50:47 82° NE 04:54:46 11° ESE
Cosmos 2123 Rocket 4.0 04:44:45 10° S 04:51:03 75° E 04:57:18 10° NNE
STARLINK-1320 4.4 04:50:18 10° SW 04:52:54 22° SSE 04:54:59 13° ESE
STARLINK-80 4.5 04:49:22 10° W 04:52:57 35° SSW 04:56:25 11° SE
Meteor 1-27 Rocket 4.4 04:47:38 10° S 04:53:04 36° ESE 04:58:29 10° NE
STARLINK-1322 4.4 04:50:37 10° SW 04:53:14 22° SSE 04:55:18 13° ESE
STARLINK-1324 4.4 04:50:58 10° SW 04:53:35 22° SSE 04:55:38 13° ESE
STARLINK-1294 4.4 04:51:21 10° SW 04:53:56 22° SSE 04:55:55 13° ESE
Cosmos 1812 3.5 04:50:33 10° S 04:54:05 31° ESE 04:57:36 10° NE
USA 234 3.6 04:47:43 10° SE 04:54:13 62° SSW 05:00:42 10° WNW
STARLINK-1261 4.4 04:51:38 10° SW 04:54:15 22° SSE 04:56:16 13° ESE
COSMOS 2428 2.8 04:48:41 10° N 04:54:19 62° ENE 05:00:03 10° SSE
STARLINK-1325 4.4 04:51:57 10° SW 04:54:35 22° SSE 04:56:35 13° ESE
STARLINK-1333 4.4 04:52:21 10° SW 04:54:58 23° SSE 04:56:57 14° ESE
STARLINK-1334 4.4 04:52:39 10° SW 04:55:17 23° SSE 04:57:16 14° ESE
STARLINK-1326 4.4 04:53:00 10° SW 04:55:38 23° SSE 04:57:35 14° ESE
STARLINK-1288 3.7 04:51:32 10° NW 04:55:44 88° NE 04:59:32 13° ESE
STARLINK-1323 4.4 04:53:19 10° SW 04:55:57 23° SSE 04:57:54 14° ESE
Cosmos 1461 3.7 04:52:32 10° SSW 04:56:01 27° SE 04:59:22 10° ENE
STARLINK-1349 4.4 04:53:41 10° SW 04:56:20 23° SSE 04:58:15 14° ESE
STARLINK-1336 4.4 04:54:00 10° SW 04:56:38 23° SSE 04:58:33 14° ESE
STARLINK-1331 4.4 04:54:22 10° SW 04:57:02 23° SSE 04:58:55 14° ESE
ADEOS Rocket 3.8 04:49:44 10° N 04:57:20 80° WNW 05:05:15 10° SSW
STARLINK-1344 4.4 04:54:44 10° SW 04:57:23 23° SSE 04:59:15 14° ESE
STARLINK-1343 4.4 04:55:01 10° SW 04:57:39 23° SSE 04:59:31 14° ESE
STARLINK-1346 4.4 04:55:26 10° SW 04:58:02 23° SSE 04:59:51 15° ESE
STARLINK-1328 4.4 04:55:42 10° SW 04:58:21 23° SSE 05:00:11 15° ESE
STARLINK-1354 4.4 04:56:01 10° SW 04:58:40 23° SSE 05:00:29 15° ESE
STARLINK-1347 4.4 04:56:23 10° SW 04:59:02 23° SSE 05:00:51 15° ESE
STARLINK-1357 4.4 04:56:43 10° SW 04:59:22 23° SSE 05:01:10 15° ESE
STARLINK-1335 4.4 04:57:06 10° SW 04:59:46 23° SSE 05:01:32 15° ESE
ATLAS 5 CENTAUR R/B 3.7 04:54:02 10° NNE 04:59:58 28° ENE 05:04:51 13° ESE
STARLINK-1327 4.3 04:57:22 10° SW 05:00:02 23° SSE 05:01:48 15° ESE
STARLINK-1340 4.3 04:57:43 10° SW 05:00:23 23° SSE 05:02:08 15° ESE
STARLINK-1356 4.3 04:58:03 10° SW 05:00:43 24° SSE 05:02:28 16° ESE
STARLINK-1308 3.7 04:56:32 10° WNW 05:00:45 85° SSW 05:04:21 14° SE
STARLINK-1345 4.3 04:58:23 10° SW 05:01:04 24° SSE 05:02:47 16° ESE
STARLINK-1355 4.3 04:58:43 10° SW 05:01:25 24° SSE 05:03:06 16° ESE
STARLINK-1321 4.3 04:59:05 10° SW 05:01:46 24° SSE 05:03:27 16° ESE
STARLINK-1358 4.3 04:59:23 10° SW 05:02:05 24° SSE 05:03:45 16° ESE
Meteor 1-31 Rocket 4.5 04:58:46 10° S 05:02:26 34° WSW 05:06:03 10° NW
STARLINK-1332 4.3 04:59:48 10° SW 05:02:30 24° SSE 05:04:08 16° ESE
STARLINK-1348 4.3 05:00:06 10° SW 05:02:47 24° SSE 05:04:25 16° ESE
STARLINK-1311 4.5 05:00:28 10° WSW 05:03:04 24° SSW 05:05:12 13° SE
STARLINK-1330 4.3 05:00:24 10° SW 05:03:06 24° SSE 05:04:43 16° ESE
STARLINK-60 3.0 05:00:04 10° WSW 05:03:20 81° NW 05:06:36 10° NE
STARLINK-1363 4.3 05:00:49 10° SW 05:03:31 24° SSE 05:05:06 17° ESE
Lacrosse 5 rocket 3.6 05:02:30 10° NE 05:03:31 11° ENE 05:04:33 10° ENE
STARLINK-1337 4.3 05:01:06 10° SW 05:03:48 24° SSE 05:05:23 17° ESE
STARLINK-1342 4.3 05:01:26 10° SW 05:04:08 24° SSE 05:05:42 17° ESE
STARLINK-1364 4.3 05:01:45 10° SW 05:04:27 24° SSE 05:06:01 17° ESE
STARLINK-1376 4.3 05:02:07 10° SW 05:04:50 24° SSE 05:06:22 17° ESE
COSMO-SKYMED 1 3.3 05:00:47 10° N 05:05:06 59° W 05:09:29 10° SSW
STARLINK-1369 4.5 05:01:56 10° SW 05:05:08 27° SSE 05:07:13 17° ESE
STARLINK-1360 4.3 05:02:26 10° SW 05:05:09 24° SSE 05:06:40 17° ESE
STARLINK-1361 4.3 05:02:45 10° SW 05:05:28 24° SSE 05:06:59 17° ESE
STARLINK-1367 4.3 05:03:08 10° SW 05:05:49 24° SSE 05:07:16 18° ESE
STARLINK-1366 4.3 05:03:30 10° SW 05:06:13 25° SSE 05:07:42 18° ESE
Cosmos 2237 Rocket 3.0 05:01:55 10° NNE 05:06:49 31° ENE 05:11:03 13° SE
STARLINK-61 3.5 05:03:29 10° NW 05:07:28 79° NE 05:10:27 17° ESE
STARLINK-57 4.4 05:03:57 10° NNW 05:07:28 33° NE 05:09:54 17° E
CZ-4B R/B 3.6 05:02:18 10° SSE 05:07:30 41° E 05:12:42 10° N
STARLINK-1372 4.5 05:04:43 10° SW 05:07:56 28° SSE 05:09:54 18° ESE
STARLINK-49 4.4 05:05:31 10° NNW 05:09:02 32° NE 05:11:22 18° E
Cosmos 1707 Rocket 3.8 05:05:06 10° S 05:09:27 47° ESE 05:13:42 10° NNE
Iridium 96 3.5 05:07:51 10° SSW 05:09:34 51° W 05:11:17 10° N
SL-16 R/B 4.4 05:05:52 10° W 05:09:57 20° SW 05:14:02 10° S
Cosmos 1633 3.9 05:06:31 10° NNW 05:10:01 42° WSW 05:13:32 10° S
STARLINK-27 4.4 05:07:05 10° NNW 05:10:37 33° NE 05:12:53 18° E
STARLINK-1304 3.7 05:06:30 10° WNW 05:10:42 75° SSW 05:13:54 17° SE
STARLINK-1378 4.4 05:07:45 10° SW 05:11:03 28° SSE 05:12:53 19° ESE
STARLINK-74 4.4 05:08:42 10° NNW 05:12:15 34° NE 05:14:28 19° E
STARLINK-1286 3.8 05:08:47 10° WNW 05:12:59 70° SSW 05:16:08 18° SE
STARLINK-1329 4.4 05:10:01 10° SW 05:13:19 29° SSE 05:15:02 20° ESE
Meteor 2-20 Rocket 4.4 05:07:15 10° S 05:13:32 74° E 05:19:44 10° NNE
STARLINK-1379 4.4 05:10:18 10° SW 05:13:35 29° SSE 05:15:16 20° ESE
STARLINK-39 4.3 05:10:18 10° NNW 05:13:52 36° NE 05:16:02 20° E
Cosmos 2228 Rocket 4.0 05:09:52 10° SSW 05:14:21 53° W 05:18:43 10° N
STARLINK-31 4.2 05:11:54 10° NNW 05:15:30 37° NE 05:17:37 20° E
STARLINK-1362 4.4 05:13:12 10° SW 05:16:34 30° SSE 05:18:12 21° ESE
STARLINK-1365 4.3 05:13:25 10° SW 05:16:48 30° SSE 05:18:26 21° ESE
STARLINK-69 4.1 05:13:36 10° NNW 05:17:16 41° NE 05:19:23 22° E
USA 116 4.4 05:13:25 10° NNE 05:18:14 90° E 05:23:34 10° SSW
STARLINK-21 4.1 05:15:08 10° NNW 05:18:46 40° NE 05:20:47 22° E
Cosmos 1371 Rocket 4.2 05:13:40 10° SSW 05:19:01 55° ESE 05:24:17 10° NE
STARLINK-1373 4.3 05:16:00 10° SW 05:19:21 30° SSE 05:20:51 23° ESE
Cosmos 1934 Rocket 4.5 05:13:57 10° NNW 05:20:17 67° W 05:26:43 10° S
STARLINK-45 3.9 05:16:52 10° NNW 05:20:34 45° NE 05:22:35 23° ESE
STARLINK-1390 4.3 05:18:41 10° SW 05:22:02 31° SSE 05:23:22 24° ESE
STARLINK-70 3.9 05:18:27 10° NNW 05:22:10 45° NE 05:24:06 24° E
STARLINK-62 4.5 05:19:29 10° W 05:22:20 27° SSW 05:23:57 18° SSE
SL-16 R/B 3.8 05:19:40 10° NE 05:22:27 15° E 05:22:27 15° E
STARLINK-1048 4.4 05:19:13 10° NNW 05:23:04 37° NE 05:25:03 23° E
Cosmos 1862 Rocket 4.3 05:19:15 10° S 05:23:22 32° ESE 05:27:27 10° NE
STARLINK-1029 4.3 05:20:45 10° W 05:23:40 30° SSW 05:25:14 20° SSE
STARLINK-76 4.0 05:20:00 10° NNW 05:23:41 44° NE 05:25:32 25° E
STARLINK-71 4.0 05:19:58 10° NNW 05:23:53 48° NE 05:25:57 25° ESE
Cosmos 158 Rocket 3.9 05:19:18 10° NNW 05:24:27 74° ENE 05:29:49 10° SSE
STARLINK-23 3.9 05:21:37 10° NNW 05:25:20 45° NE 05:27:06 26° E
STARLINK-32 3.9 05:23:13 10° NNW 05:26:57 47° NE 05:28:40 27° E
Cosmos 2333 Rocket 2.6 05:21:13 10° NW 05:26:58 66° WSW 05:32:47 10° SSE
STARLINK-1299 4.2 05:22:45 10° WNW 05:26:59 53° SSW 05:29:38 21° SE
STARLINK-1306 4.1 05:23:14 10° WNW 05:27:26 57° SSW 05:30:00 22° SE
Cosmos 405 3.2 05:24:04 10° SSW 05:27:40 72° W 05:31:11 10° N
Cosmos 2112 Rocket 4.0 05:22:38 10° NNW 05:27:58 79° ENE 05:33:17 10° SSE
STARLINK-1049 4.3 05:24:05 10° NNW 05:28:01 40° NE 05:29:49 26° E
STARLINK-40 3.8 05:24:53 10° NW 05:28:38 48° NE 05:30:18 28° E
Okean O Rocket 1.6 05:24:37 10° SSE 05:29:05 63° ENE 05:33:30 10° N
H-2A R/B 2.7 05:25:38 10° SSE 05:29:32 65° E 05:33:24 10° N
STARLINK-44 3.8 05:26:26 10° NW 05:30:12 50° NE 05:31:48 29° E
Meteor 1-10 Rocket 4.5 05:24:51 10° SSW 05:30:32 75° W 05:36:14 10° N
STARLINK-1281 4.0 05:26:30 10° WNW 05:30:39 57° SSW 05:33:02 24° SE
Cosmos 1605 Rocket 4.1 05:24:50 10° N 05:31:05 83° W 05:37:19 10° S
Cosmos 2278 Rocket 2.2 05:25:44 10° SSW 05:31:26 65° ESE 05:37:05 10° NE
STARLINK-37 3.7 05:28:14 10° NW 05:32:03 55° NE 05:33:38 31° ESE
STARLINK-29 2.9 05:28:52 10° SW 05:32:12 89° SE 05:33:59 25° ENE
STARLINK-1051 4.2 05:29:00 10° NNW 05:32:59 44° NE 05:34:37 29° E
Sich 1 3.2 05:28:59 10° N 05:33:23 81° W 05:37:54 10° S
STARLINK-36 3.7 05:29:41 10° NW 05:33:28 53° NE 05:34:57 32° E
STARLINK-68 3.6 05:31:29 10° NW 05:35:18 60° NE 05:36:47 34° ESE
STARLINK-1310 4.1 05:31:32 10° WNW 05:35:39 54° SSW 05:37:49 26° SE
SMAP 3.3 05:32:36 12° SSE 05:36:47 48° E 05:41:19 10° N
STARLINK-63 3.6 05:33:04 10° NW 05:36:54 59° NE 05:38:18 35° ESE
STARLINK-35 3.6 05:34:35 10° NW 05:38:24 58° NE 05:39:43 36° E
STARLINK-51 3.5 05:36:16 10° NW 05:40:06 61° NE 05:41:22 38° E
STARLINK-1319 4.2 05:36:33 10° WNW 05:40:39 50° SSW 05:42:36 28° SE
Cosmos 1346 Rocket 4.5 05:37:19 10° NW 05:40:57 34° WSW 05:44:39 10° S
STARLINK-30 3.5 05:37:53 10° NW 05:41:44 62° NE 05:42:55 40° E
STARLINK-1028 3.9 05:38:51 10° NW 05:42:55 52° NE 05:44:12 37° E
STARLINK-72 3.5 05:39:35 10° NW 05:43:26 65° NE 05:44:35 41° ESE
Cosmos 2360 Rocket 4.3 05:40:04 10° W 05:44:29 22° SW 05:48:54 10° S
STARLINK-1277 4.3 05:41:33 10° W 05:45:38 48° SSW 05:47:22 29° SSE
STARLINK-59 3.4 05:42:54 10° NW 05:46:47 72° NE 05:47:48 46° ESE
Cosmos 2056 Rocket 3.4 05:42:05 10° SSW 05:47:31 80° ESE 05:52:47 10° NNE
STARLINK-1021 3.8 05:43:46 10° NW 05:47:52 57° NE 05:48:58 42° E
STARLINK-56 3.4 05:44:28 10° NW 05:48:20 71° NE 05:49:17 48° ESE
ATLAS 2AS CENTAUR R/B 3.5 05:44:01 10° SSW 05:49:39 29° SE 05:51:06 27° ESE
STARLINK-73 3.4 05:46:06 10° NW 05:49:58 73° NE 05:50:52 50° ESE
STARLINK-1276 4.4 05:46:35 10° W 05:50:39 45° SSW 05:52:09 31° SSE
STARLINK-38 3.4 05:47:44 10° NW 05:51:37 75° NE 05:52:27 52° ESE
NOAA 6 4.4 05:47:07 10° S 05:52:16 64° WSW 05:57:21 10° NNW
STARLINK-1019 3.7 05:48:43 10° NW 05:52:51 62° NE 05:53:46 48° E
CZ-2C R/B 3.4 05:53:40 31° SE 05:53:40 31° SE 05:57:49 10° S
STARLINK-24 3.5 05:49:07 10° NW 05:53:11 82° NE 05:54:10 50° ESE
STARLINK-65 3.3 05:49:24 10° NW 05:53:17 77° NE 05:54:03 55° ESE
STARLINK-53 3.4 05:51:17 10° NW 05:55:12 83° NNE 05:55:57 57° ESE
STARLINK-1305 4.5 05:51:37 10° W 05:55:39 43° SSW 05:56:57 33° SSE
STARLINK-25 3.2 05:52:52 10° NW 05:56:39 79° NE 05:57:08 64° ESE
STARLINK-1012 3.6 05:53:39 10° NW 05:57:49 68° NE 05:58:32 54° E
Cosmos 1818 3.5 05:52:34 10° NNW 05:57:59 86° ENE 06:00:42 31° SE
Cosmos 1933 Rocket 4.3 05:55:42 10° NNE 05:58:46 35° NE 05:58:46 35° NE
Cosmos 1666 Rocket 4.0 05:55:33 10° NNW 05:59:54 61° W 06:04:18 10° S
Cosmos 1633 Rocket 3.3 05:57:34 10° NNW 06:02:00 72° W 06:06:32 10° S
Shenzhou-11 Module 3.2 05:59:29 10° WNW 06:01:12 34° WNW 06:01:12 34° WNW
YAOGAN 6 2.5 06:03:03 71° ESE 06:03:13 73° E 06:06:55 10° N
BREEZE-M DEB (TANK) 4.2 06:00:11 10° WSW 06:04:32 71° NNW 06:22:23 10° NE
Meteor 1-25 Rocket 4.2 06:00:24 10° N 06:05:48 53° E 06:07:53 35° SE
Centaur D AC-29 3.9 06:01:23 10° NW 06:06:25 15° NNW 06:09:20 10° NNE
Cosmos 2219 Rocket 3.6 06:02:27 10° WNW 06:07:39 36° SW 06:12:56 10° SSE
STARLINK-1026 3.5 06:03:34 10° NW 06:07:46 80° NE 06:08:07 72° E
Cosmos 2100 Rocket 3.9 06:01:35 10° N 06:07:48 78° E 06:14:03 10° S
STARLINK-52 3.7 06:05:07 10° WSW 06:08:19 49° NW 06:08:30 48° NNW
STARLINK-50 3.4 06:05:16 10° WNW 06:09:21 83° SSW 06:09:41 74° SSE
STARLINK-1338 4.0 06:07:18 10° SW 06:10:05 43° SSW 06:10:05 43° SSW
STARLINK-1013 3.5 06:08:30 10° NW 06:12:42 86° NE 06:12:52 81° E
FALCON 9 DEB 3.5 06:09:40 10° WSW 06:12:55 65° WNW 06:12:55 65° WNW
STARLINK-1371 4.2 06:12:44 10° SW 06:15:21 41° SSW 06:15:21 41° SSW
STARLINK-1009 3.5 06:13:28 10° NW 06:17:39 88° WSW 06:17:39 88° WSW
Cosmos 1452 Rocket 3.6 06:12:43 10° SSW 06:17:28 52° SE 06:17:28 52° SE
STARLINK-1341 4.3 06:15:29 10° SW 06:18:02 40° SW 06:18:02 40° SW
SL-4 R/B 4.5 06:17:53 10° W 06:20:36 19° NW 06:23:28 10° N
Cosmos 1420 Rocket 3.9 06:15:57 10° SSW 06:21:22 83° ESE 06:24:08 30° NNE
STARLINK-1374 4.4 06:18:03 10° SW 06:20:30 38° SW 06:20:30 38° SW
Cosmos 1980 4.0 06:16:48 10° NW 06:22:27 66° WSW 06:25:38 27° SSE
STARLINK-1015 3.7 06:18:27 10° WNW 06:22:26 78° W 06:22:26 78° W
CZ-4C R/B 4.4 06:20:45 10° SSW 06:23:47 13° S 06:24:38 13° SSE
Cosmos 2061 Rocket 3.9 06:18:21 10° N 06:24:35 68° E 06:28:12 27° SSE
Cosmos 1238 Rocket 4.1 06:20:45 10° NNW 06:25:03 42° W 06:27:18 21° SSW
Envisat 3.3 06:21:20 13° S 06:25:52 65° WSW 06:30:56 10° NNW
STARLINK-1016 3.9 06:23:27 10° WNW 06:27:13 68° W 06:27:13 68° W
Meteor 1-20 Rocket 4.2 06:23:48 10° N 06:29:33 85° E 06:32:30 32° SSE
Feng Yun 1-1 Rocket 4.0 06:27:58 43° SSE 06:29:52 85° ENE 06:35:21 10° NNW
Cosmos 2297 4.0 06:25:53 10° SSW 06:30:33 51° SSE 06:30:33 51° SSE
STARLINK-1008 4.1 06:28:26 10° WNW 06:32:01 59° W 06:32:01 59° W
Helios 1A Rocket 3.3 06:33:10 61° W 06:33:10 61° W 06:37:02 10° NNW
STARLINK-81 4.5 06:30:34 10° WNW 06:33:34 45° W 06:33:34 45° W
Cosmos 1461 4.4 06:31:33 10° SW 06:35:05 32° WNW 06:36:32 24° NNW
Cosmos 2016 Rocket 3.9 06:28:49 10° N 06:35:06 80° E 06:39:15 24° SSE
Cosmos 1864 Rocket 4.3 06:29:53 10° N 06:35:59 68° E 06:36:18 67° ESE
USA 234 4.4 06:34:22 27° SSE 06:36:29 33° SSW 06:42:15 10° WSW
Cosmos 2173 Rocket 4.2 06:30:45 10° NNW 06:37:01 69° W 06:43:17 10° S
STARLINK-1014 4.4 06:33:26 10° WNW 06:36:51 53° W 06:36:51 53° W
DMSP B5D2-2 4.5 06:42:44 53° S 06:42:44 53° S 06:46:44 10° SSW
Lacrosse 5 rocket 2.6 06:37:32 10° NW 06:40:18 39° NNW 06:40:18 39° NNW
Cosmos 1459 Rocket 4.4 06:38:02 10° NNW 06:44:10 62° W 06:50:32 10° S
ATLAS 5 CENTAUR R/B 2.8 06:37:15 10° NW 06:44:25 71° SW 06:46:25 48° SSE
Cosmos 1816 Rocket 4.3 06:39:00 10° S 06:54:02 - N 06:45:22 76° ESE
SL-24 R/B - RUBIN 2 4.3 06:44:15 10° NW 06:48:23 56° WNW 06:48:23 56° WNW
Cosmos 371 Rocket 4.3 06:44:33 10° SSW 06:47:37 39° SSW 06:47:37 39° SSW
Cosmos 2237 Rocket 3.2 06:45:17 10° NW 06:50:41 43° WSW 06:52:55 30° S
Cosmos 1943 Rocket 4.0 06:47:20 10° SSW 06:48:58 19° S 06:48:58 19° S
Cosmos 2369 Rocket 4.2 06:49:12 10° S 06:50:30 16° S 06:50:30 16° S
ATLAS CENTAUR R/B 4.2 06:54:18 10° SSW 06:54:46 12° SSW 06:54:46 12° SSW
BREEZE-M DEB (TANK) 4.2 06:45:29 10° NW 06:59:38 70° NNE 06:59:38 70° NNE
Okean O Rocket 4.4 07:02:18 10° SSW 07:04:55 15° WSW 07:07:32 10° W
SL-16 R/B 2.9 07:00:23 10° NNW 07:04:24 48° NNW 07:04:24 48° NNW
BREEZE M DEB (TANK) 3.9 06:53:23 10° WSW 07:13:05 87° SSE 07:13:12 86° ESE
Cosmos 1725 Rocket 4.3 07:07:14 10° NNW 07:13:29 66° W 07:13:48 65° WSW
NOSS 3-4 (A) 4.1 07:07:43 10° SW 07:13:16 54° SSW 07:13:16 54° SSW
NOSS 3-4 (C) 4.1 07:07:49 10° SW 07:13:20 53° SSW 07:13:20 53° SSW
CZ-2C R/B 4.3 07:35:10 29° SW 07:35:10 29° SW 07:38:18 10° SSW
ATLAS 2AS CENTAUR R/B 3.6 07:34:29 10° SW 07:38:35 41° SW 07:38:35 41° SW
